Regional Weather Roundup
Issued by NWS

Home | Current Version | Previous Version | Graphics & Text | Print | Product List | Glossary On
Versions: 1 2 3 4 5 6 7 8 9 10 11 12 13 14 15 16 17 18 19 20 21 22 23 24 25 26 27 28 29 30 31 32 33 34 35 36 37 38 39 40 41 42 43 44 45 46 47 48 49 50
000
ASUS43 KMKX 291500
RWRWI

WISCONSIN REGIONAL WEATHER ROUNDUP
NATIONAL WEATHER SERVICE MILWAUKEE/SULLIVAN WI
1000 AM CDT SAT APR 29 2017

NOTE: "FAIR" INDICATES FEW OR NO CLOUDS BELOW 12,000 FEET WITH NO
SIGNIFICANT WEATHER AND/OR OBSTRUCTIONS TO VISIBILITY.

WIZ001-002-006>008-014>016-023>028-291600-
NORTHWEST WISCONSIN

CITY           SKY/WX    TMP DP  RH WIND       PRES   REMARKS
SUPERIOR ARPT  SUNNY     43  26  50 NE5       30.37R
ASHLAND        SUNNY     42  26  53 CALM      30.37R
HAYWARD        CLOUDY    43  22  43 E5        30.33R
SIREN          CLOUDY    43  25  49 E7        30.33F
CUMBERLAND     CLOUDY    39  23  52 E7        30.31R WCI  34
RICE LAKE      CLOUDY    41  25  52 NE8       30.33S
CHETEK         CLOUDY    42  26  55 E8        30.33R
LADYSMITH      MOSUNNY   42  26  53 NE8       30.32S
EAU CLAIRE     NOT AVBL
MENOMONIE      CLOUDY    43  24  47 NE13      30.31R
NEW RICHMOND   PTSUNNY   42  23  47 E8        30.32R
OSCEOLA        CLOUDY    43  27  52 E7        30.36R
$$

WIZ003>005-009-010-017-018-291600-
NORTH CENTRAL WISCONSIN

CITY           SKY/WX    TMP DP  RH WIND       PRES   REMARKS
MANITOWISH WTR SUNNY     38  22  51 E9        30.30R WCI  31
ARBOR VITAE    SUNNY     39  22  50 NE9G16    30.28F WCI  33
WOODRUFF       SUNNY     39  22  50 NE9G16    30.28F WCI  33
RHINELANDER    SUNNY     41  23  48 NE9       30.29S
EAGLE RIVER    SUNNY     38  20  49 NE9       30.28F WCI  31
LAND O LAKES   SUNNY     38  19  45 NE7       30.31S WCI  33
PHILLIPS       MOSUNNY   39  24  56 NE12      30.28F WCI  31
TOMAHAWK       SUNNY     40  24  53 NE8       30.29S WCI  34
MEDFORD        SUNNY     39  24  54 NE13      30.27S WCI  32
MERRILL        SUNNY     40  24  52 NE9       30.29S WCI  34
$$

WIZ029-030-035-036-043>047-291600-
CENTRAL WISCONSIN

CITY           SKY/WX    TMP DP  RH WIND       PRES   REMARKS
WAUSAU         SUNNY     41  23  48 NE14      30.27F
MOSINEE        MOSUNNY   41  27  56 NE10      30.28F
MARSHFIELD     SUNNY     41  25  53 E13       30.27S
STEVENS POINT  CLOUDY    39  23  51 NE18      30.28F WCI  30
WAUPACA        CLOUDY    43  27  52 NE12      30.27F
WAUTOMA        PTSUNNY   42  27  55 NE12      30.28S
WISC RAPIDS    CLOUDY    43  24  47 E13       30.28F
CAMP DOUGLAS   NOT AVBL
$$

WIZ011>013-019>022-031-037>040-048>050-291600-
NORTHEAST WISCONSIN

CITY           SKY/WX    TMP DP  RH WIND       PRES   REMARKS
ANTIGO         SUNNY     38  26  60 NE13      30.27F WCI  31
SHAWANO        MOSUNNY   42  28  56 N16       30.29S
OCONTO         NOT AVBL
STURGEON BAY   CLOUDY    40  28  62 N20G26    30.29S WCI  30
GREEN BAY      CLOUDY    42  30  62 NE21      30.27F
MANITOWOC      NOT AVBL
APPLETON       PTSUNNY   41  23  48 NE16G23   30.25
CLINTONVILLE   CLOUDY    41  27  56 NE13      30.28F
OSHKOSH        CLOUDY    41  31  67 NE13      30.26S
$$

WIZ032>034-041-042-053>061-291600-
SOUTHWEST WISCONSIN

CITY           SKY/WX    TMP DP  RH WIND       PRES   REMARKS
LA CROSSE      MOSUNNY   46  27  47 NE14G24   30.24F
SPARTA         MOSUNNY   42  27  57 E13G20    30.27S
VIROQUA        MOSUNNY   40  29  66 NE18G24   30.22F WCI  30
BOSCOBEL       CLOUDY    46  29  51 NE8G18    30.23S
PRAIRIE DU CHI PTSUNNY   45  30  57 NE15      30.21F
PLATTEVILLE    MOSUNNY   46  36  68 NE21G26   30.18F
$$

WIZ056-057-062-063-064-067-068-291600-
SOUTH CENTRAL WISCONSIN

CITY           SKY/WX    TMP DP  RH WIND       PRES   REMARKS
REEDSBURG      CLOUDY    40  27  59 NE13G20   30.24S WCI  33
BARABOO/DELLS  CLOUDY    40  29  63 NE9G18    30.24S WCI  34
LONE ROCK      NOT AVBL
MINERAL POINT  CLOUDY    45  36  70 NE15G22   30.19S
MADISON        PTSUNNY   43  30  60 NE16      30.22S
MIDDLETON      MOSUNNY   44  32  63 NE13G23   30.22F
WATERTOWN      MOSUNNY   42  32  65 NE15      30.21F
MONROE         CLOUDY    45  32  61 NE20      30.17S
JANESVILLE     SUNNY     48  36  61 NE15G24   30.16F
$$

WIZ051-052-058>065-066-070>072-291600-
SOUTHEAST WISCONSIN

CITY           SKY/WX    TMP DP  RH WIND       PRES   REMARKS
MILWAUKEE      CLOUDY    42  32  67 NE22G31   30.22S
WAUKESHA       SUNNY     39  30  70 NE17      30.22F WCI  30
MILWAUKEE/TIMM SUNNY     41  27  56 NE17G25   30.23F
RACINE         PTSUNNY   42  32  67 NE21G35   30.21F
KENOSHA        CLOUDY    43  33  68 NE21      30.18F
FOND DU LAC    CLOUDY    43  29  57 NE16G23   30.26S
SHEBOYGAN      CLOUDY    41  33  73 NE22      30.25F
WEST BEND      CLOUDY    41  32  70 NE15G21   30.23F
JUNEAU         CLOUDY    40  28  62 NE13      30.23F WCI  33
$$

LSZ147-162-291600-
LAKE SUPERIOR

STATION/POSITION TIME  TEMP    WIND        PRES    WAVE
                       AIR SEA DIR/SP/G            HT/PER
                 (UTC) (F)     (DEG/KT/KT) (MB)    (FT/S)
DEVILS ISLAND    1400   37     110/  6/  6 1028.9R
PORT WING        1240   34     130/  2/  5 1026.4
SAXON HARBOR     1430   38     300/  4/  5 1027.4R
$$

LMZ867-665-643>646-291600-
LAKE MICHIGAN

STATION/POSITION TIME  TEMP    WIND        PRES    WAVE
                       AIR SEA DIR/SP/G            HT/PER
                 (UTC) (F)     (DEG/KT/KT) (MB)    (FT/S)
CHAMBERS ISLAND  1440   39      10/ 16/ 20 1025.7R
N MID LAKE BUOY  1350   36 37  350/ 12/ 14 1026.7R   1/ 3
NORTHPORT PIER   1440   37     350/ 13/ 15 1026.1R
KEWAUNEE LAKESHO 1430   40      40/ 13/ 16 1025.0R
SHEBOYGAN LAKESH 1400   38      20/ 21/ 24 1025.1F
PORT WASHINGTON  1440   41      40/ 21/ 25 1025.1F
MILWAUKEE LAKESH 1430   39      20/ 21/ 24   N/A
S MID LAKE BUOY  1350   40 41   10/ 19/ 21 1022.9R   3/ 5
KENOSHA   LAKESH 1400   40      20/ 26/ 30 1022.4
$$

TC  - TEMPERATURE IN CELSIUS
VSB - VISIBILITY IN STATUTE MILES
WCI - WIND CHILL INDEX
HX  - HEAT INDEX





USA.gov is the U.S. government's official web portal to all federal, state and local government web resources and services.